Flight Track Log - Related Links

Times and Time Zones

All times are in EDT time to prevent confusion due to time zone crossing. See the SWA253 flight status page for this flight to view local times or setup timezone preferences in your user account.

Time Position Orientation Groundspeed Altitude Reporting Facility
EDT Latitude Longitude Course Direction KTS MPH feet Rate Location/Type
Mon 11:33:10 PM 37.7286 -122.2569 150° Southeast 150 173 2,100  Level Oakland Center
Mon 11:34:11 PM 37.7597 -122.3158 304° West 201 231 3,900 2,410 Climbing Oakland Center
Mon 11:35:12 PM 37.7300 -122.3953 245° Southwest 272 313 7,000 3,098 Climbing Oakland Center
Mon 11:36:13 PM 37.6544 -122.3522 156° South 302 348 10,200 2,902 Climbing Oakland Center
Mon 11:37:14 PM 37.5775 -122.2747 141° Southeast 348 400 12,900 3,295 Climbing Oakland Center
Mon 11:38:00 PM 37.3092 -122.3470 150° Southeast  Level FlightAware
Mon 11:38:15 PM 37.4733 -122.1700 141° Southeast 393 452 16,900  Level Oakland Center
Mon 11:39:16 PM 37.3778 -122.0742 141° Southeast 429 494 19,900 2,902 Climbing Oakland Center
Mon 11:40:17 PM 37.2803 -121.9764 141° Southeast 445 512 22,800 2,508 Climbing Oakland Center
Mon 11:41:18 PM 37.1753 -121.8725 142° Southeast 473 544 25,000 1,082 Climbing Oakland Center
Mon 11:42:19 PM 37.0689 -121.7642 141° Southeast 488 562 25,000  Level Oakland Center
Mon 11:43:19 PM 36.9553 -121.6519 142° Southeast 515 593 25,000  Level Oakland Center
Mon 11:44:20 PM 36.8411 -121.5425 142° Southeast 518 596 25,000  Level Oakland Center
Mon 11:45:21 PM 36.7242 -121.4244 141° Southeast 518 596 25,000  Level Oakland Center
Mon 11:46:22 PM 36.6075 -121.3117 142° Southeast 539 620 25,000  Level Oakland Center
Mon 11:47:23 PM 36.4872 -121.1942 142° Southeast 548 631 25,000  Level Oakland Center
Mon 11:48:24 PM 36.3681 -121.0756 141° Southeast 549 632 25,000 98 Level Oakland Center
Mon 11:49:25 PM 36.2481 -120.9603 142° Southeast 549 632 25,200 1,082 Climbing Oakland Center
Mon 11:50:26 PM 36.1283 -120.8450 142° Southeast 546 628 27,200 885 Climbing Oakland Center
Mon 11:51:27 PM 36.0067 -120.7275 142° Southeast 553 636 27,000 -98 Descending Oakland Center
Mon 11:52:28 PM 35.8867 -120.6122 142° Southeast 549 632 27,000  Level Oakland Center
Mon 11:53:29 PM 35.7650 -120.4986 143° Southeast 548 631 27,000  Level Oakland Center
Mon 11:54:30 PM 35.6439 -120.3836 142° Southeast 547 629 27,000  Level Oakland Center
Mon 11:55:30 PM 35.5203 -120.2678 143° Southeast 551 634 27,000  Level Oakland Center
Mon 11:56:31 PM 35.3950 -120.1475 142° Southeast 558 642 27,000  Level Oakland Center
Mon 11:57:32 PM 35.2694 -120.0294 142° Southeast 561 646 27,000 -787 Level Oakland Center
Mon 11:58:33 PM 35.1456 -119.9144 143° Southeast 557 641 25,400 -1,475 Descending Oakland Center
Mon 11:59:34 PM 35.0331 -119.7847 137° Southeast 557 641 24,000 -984 Descending Oakland Center
Tue 12:00:35 AM 34.9139 -119.6242 132° Southeast 532 612 23,400 -1,835 Descending Oakland Center
Tue 12:01:35 AM 34.8214 -119.4978 132° Southeast 505 581 20,300 -2,876 Descending Los Center
Tue 12:02:36 AM 34.7292 -119.3750 132° Southeast 493 567 17,600 -2,976 Descending Los Center
Tue 12:03:38 AM 34.6417 -119.2564 132° Southeast 475 547 14,200 -2,829 Descending Los Center
Tue 12:04:39 AM 34.5531 -119.1406 133° Southeast 446 513 11,800 -1,574 Descending Los Center
Tue 12:05:40 AM 34.4786 -119.0431 133° Southeast 392 451 11,000 -829 Descending Los Center
Tue 12:06:42 AM 34.4114 -118.9497 131° Southeast 359 413 10,100 -976 Descending Los Center
Tue 12:07:43 AM 34.3536 -118.8628 129° Southeast 332 382 9,000 -1,366 Descending Los Center
Tue 12:08:45 AM 34.2975 -118.7839 131° Southeast 306 352 7,300 -1,707 Descending Los Center
Tue 12:09:46 AM 34.2494 -118.7006 125° Southeast 300 345 5,500 -1,450 Descending Los Center
Tue 12:10:45 AM 34.2167 -118.6000 111° Southeast 278 320 4,400 -555 Descending Southern TRACON
Tue 12:11:45 AM 34.1833 -118.5333 121° Southeast 229 264 4,400 -500 Level Southern TRACON
Tue 12:12:45 AM 34.1667 -118.4667 107° East 168 193 3,400 -1,048 Descending Southern TRACON
Tue 12:13:51 AM 34.1667 -118.4167 90° East 150 173 2,200 -893 Descending Southern TRACON
Tue 12:14:46 AM 34.1667 -118.3667 90° East 138 159 1,600 -581 Descending Southern TRACON
Tue 12:15:55 AM 34.1903 -118.3478 33° Northeast 140 161 1,000 -522 Descending Los Center
Tue 12:17:00 AM 34.2000 -118.3500 140° Southeast  Level FlightAware
Tue 12:24:00 AM 34.2007 -118.3587 140° Southeast  Level Estimated

Login

Don't have an account? Register now (free) for customized features, flight alerts, and more!